sat.trackr.live / text

‹ back to catalog

ICEYE-X74

NORAD 68500 · 2026-067CN

PAYLOAD ACTIVE UNKNOWN

§ Identity

Operator
Country
US
Launch date
2026-03-30
Launch site
AFWTR
Launch vehicle
Mass (kg)
RCS (m²)

External: N2YO · Heavens-Above · Gunter

§ Orbital elements

Epoch: 2026-05-24T20:24:00.273024Z

Period
96.54 min
Inclination
97.7607°
Eccentricity
0.0003797
Mean motion
14.91537730 rev/d
Perigee alt
590.5 km
Apogee alt
595.8 km
Semi-major
6,971.3 km
B*
2.0538e-4
RAAN
103.4561°
Arg perigee
91.8395°
Mean anomaly
268.3259°
Rev number
824

§ Raw data

ICEYE-X741 68500U 26067CN  26144.85000316  .00002002  00000+0  20538-3 0  99942 68500  97.7607 103.4561 0003797  91.8395 268.3259 14.91537730  8247

JSON: /api/v1/satellites/68500 · /tle

For live sub-satellite position, see the globe view (requires WebGL).

§ Visibility from observer

Set your observer location to see the next 7 days of passes ≥ 10°. The values pass through the URL so the page stays shareable.

No JS? Fill the form by hand. The geolocation button needs JavaScript.